Muskegon, MI

9:45 AM EDT on March 27, 2017 (GMT -0400)
Muskegon County

Weather History for KMKG - March, 2013

Change the Weather History Date:

Thursday, March 21, 2013

  Actual Average Record
Temperature  
Mean Temperature 27 °F 37 °F  
Max Temperature 32 °F 45 °F 82 °F (2012)
Min Temperature 21 °F 28 °F 10 °F (1986)
Degree Days  
Heating Degree Days 38 28  
Month to date heating degree days 743 667  
Since 1 July heating degree days 5165 5399  
Cooling Degree Days 0 0  
Month to date cooling degree days 0 0  
Year to date cooling degree days 0 0  
Moisture  
Dew Point 19 °F    
Average Humidity 71    
Maximum Humidity 84    
Minimum Humidity 58    
Precipitation  
Precipitation 0.03 in 0.08 in 0.97 in (2007)
Month to date precipitation 1.19 1.49  
Year to date precipitation 10.63 5.35  
Snow  
Snow 0.50 in 0.20 in 7.00 in (2008)
Month to date snowfall 5.7 7.1  
Since 1 July snowfall 98.6 89.5  
Snow Depth 2.00 in    
Sea Level Pressure  
Sea Level Pressure 29.96 in    
Wind  
Wind Speed 11 mph (NW)    
Max Wind Speed 20 mph    
Max Gust Speed 26 mph    
Visibility 6 miles    
Events Snow    
T = Trace of Precipitation, MM = Missing Value Source: NWS Daily Summary

Daily Weather History Graph

Daily Weather History Graph

Search for Another Location

Airport or City:

Trip Planner

Search our weather history database for the weather conditions in past years. The results will help you decide how hot, cold, wet, or windy it might be!

Date:

Astronomy

Mar. 21, 2013 Rise Set
Actual Time 7:45 AM EDT 7:58 PM EDT
Civil Twilight 7:17 AM EDT 8:27 PM EDT
Nautical Twilight 6:44 AM EDT 9:00 PM EDT
Astronomical Twilight 6:10 AM EDT 9:34 PM EDT
Moon 2:20 PM EDT (3/21) 4:15 AM EDT (3/21)
Length of Visible Light 13h 09m
Length of Day
12h 12m
Waxing Gibbous, 68% of the Moon is Illuminated
Mar 21
Waxing Gibbous
Mar 27
Full
Apr 3
Last Quarter
Apr 10
New
Apr 18
First Quarter

Hourly Weather History & Observations

Time (EDT) Temp. Windchill Dew Point Humidity Pressure Visibility Wind Dir Wind Speed Gust Speed Precip Events Conditions
12:18 AM 21.2 °F 9.5 °F 14.0 °F 74% 29.95 in 1.8 mi NW 11.5 mph - 0.00 in Snow Light Snow
12:31 AM 21.2 °F 12.6 °F 15.8 °F 80% 29.95 in 4.0 mi NW 6.9 mph - 0.00 in Snow Light Snow
12:41 AM 21.2 °F 11.7 °F 14.0 °F 74% 29.94 in 9.0 mi NW 8.1 mph - 0.00 in   Overcast
12:55 AM 21.9 °F 12.5 °F 12.9 °F 68% 29.97 in 8.0 mi WNW 8.1 mph - 0.00 in Snow Light Snow
1:21 AM 23.0 °F 15.8 °F 15.8 °F 74% 29.93 in 3.0 mi WNW 5.8 mph - 0.00 in Snow Light Snow
1:55 AM 23.0 °F 14.7 °F 14.0 °F 68% 29.92 in 9.0 mi NW 6.9 mph - N/A   Overcast
2:13 AM 23.0 °F 11.7 °F 17.6 °F 80% 29.92 in 1.8 mi NW 11.5 mph - 0.00 in Snow Light Snow
2:35 AM 23.0 °F 10.6 °F 17.6 °F 80% 29.92 in 0.8 mi NW 13.8 mph - 0.01 in Snow Light Snow
2:46 AM 23.0 °F 12.4 °F 17.6 °F 80% 29.92 in 2.0 mi NW 10.4 mph - 0.01 in Snow Light Snow
2:50 AM 21.2 °F 10.9 °F 17.6 °F 86% 29.92 in 7.0 mi NW 9.2 mph - 0.01 in Snow Light Snow
2:55 AM 21.9 °F 11.7 °F 17.1 °F 82% 29.95 in 9.0 mi NNW 9.2 mph - 0.01 in   Scattered Clouds
3:55 AM 21.0 °F 9.9 °F 12.9 °F 71% 29.95 in 10.0 mi NNW 10.4 mph - N/A   Scattered Clouds
4:36 AM 24.8 °F 14.6 °F 15.8 °F 69% 29.91 in 9.0 mi NW 10.4 mph - 0.00 in Snow Light Snow
4:55 AM 24.1 °F 11.5 °F 17.1 °F 75% 29.94 in 4.0 mi NW 15.0 mph 20.7 mph 0.00 in Snow Light Snow
5:55 AM 24.1 °F 13.1 °F 17.1 °F 75% 29.94 in 5.0 mi NNW 11.5 mph - 0.00 in Snow Light Snow
6:55 AM 25.0 °F 13.6 °F 17.1 °F 72% 29.94 in 10.0 mi NW 12.7 mph 23.0 mph 0.00 in   Overcast
7:55 AM 25.0 °F 15.5 °F 18.0 °F 75% 29.94 in 10.0 mi WNW 9.2 mph - N/A   Overcast
8:55 AM 27.0 °F 16.7 °F 18.0 °F 69% 29.95 in 10.0 mi NNW 11.5 mph - N/A   Overcast
9:55 AM 27.0 °F 18.7 °F 18.0 °F 69% 29.96 in 10.0 mi NW 8.1 mph - 0.00 in Snow Light Snow
10:55 AM 28.0 °F 20.8 °F 19.0 °F 69% 29.96 in 9.0 mi NW 6.9 mph - 0.00 in Snow Light Snow
11:55 AM 28.9 °F 19.2 °F 21.0 °F 72% 29.97 in 3.0 mi NW 11.5 mph - 0.00 in Snow Light Snow
12:04 PM 28.4 °F 19.7 °F 21.2 °F 74% 29.94 in 2.5 mi NW 9.2 mph - 0.01 in Snow Light Snow
12:20 PM 30.2 °F 22.6 °F 21.2 °F 69% 29.94 in 5.0 mi WNW 8.1 mph - 0.01 in Snow Light Snow
12:42 PM 28.4 °F 19.7 °F 21.2 °F 74% 29.94 in 1.5 mi WNW 9.2 mph 19.6 mph 0.01 in Snow Light Snow
12:55 PM 28.9 °F 20.4 °F 21.9 °F 75% 29.97 in 1.5 mi WNW 9.2 mph - 0.01 in Snow Light Snow
1:02 PM 28.4 °F 19.7 °F 21.2 °F 74% 29.94 in 1.0 mi NW 9.2 mph - 0.01 in Snow Light Snow
1:20 PM 30.2 °F 19.3 °F 19.4 °F 64% 29.95 in 1.5 mi WNW 15.0 mph 23.0 mph 0.01 in Snow Light Snow
1:31 PM 30.2 °F 18.5 °F 21.2 °F 69% 29.94 in 6.0 mi WNW 17.3 mph 23.0 mph 0.01 in Snow Light Snow
1:38 PM 30.2 °F 19.3 °F 21.2 °F 69% 29.95 in 6.0 mi WNW 15.0 mph 23.0 mph 0.01 in Snow Light Snow
1:52 PM 30.2 °F 18.5 °F 23.0 °F 75% 29.95 in 4.0 mi West 17.3 mph 24.2 mph 0.01 in Snow Light Snow
1:55 PM 28.9 °F 17.7 °F 23.0 °F 78% 29.98 in 3.0 mi WNW 15.0 mph - 0.01 in Snow Light Snow
2:04 PM 28.4 °F 15.8 °F 23.0 °F 80% 29.95 in 2.0 mi WNW 18.4 mph 23.0 mph 0.00 in Snow Light Snow
2:10 PM 28.4 °F 17.0 °F 23.0 °F 80% 29.95 in 1.8 mi WNW 15.0 mph 25.3 mph 0.00 in Snow Light Snow
2:19 PM 28.4 °F 16.6 °F 23.0 °F 80% 29.95 in 1.8 mi WNW 16.1 mph 23.0 mph 0.00 in Snow Light Snow
2:26 PM 28.4 °F 16.6 °F 21.2 °F 74% 29.95 in 3.0 mi WNW 16.1 mph 23.0 mph 0.00 in Snow Light Snow
2:36 PM 30.2 °F 18.5 °F 21.2 °F 69% 29.95 in 7.0 mi WNW 17.3 mph 26.5 mph 0.00 in Snow Light Snow
2:51 PM 30.2 °F 20.2 °F 21.2 °F 69% 29.95 in 8.0 mi WNW 12.7 mph 24.2 mph 0.00 in Snow Light Snow
2:55 PM 30.0 °F 17.9 °F 19.9 °F 66% 29.97 in 9.0 mi WNW 18.4 mph 24.2 mph 0.00 in Snow Light Snow
3:31 PM 30.2 °F 19.8 °F 21.2 °F 69% 29.94 in 9.0 mi WNW 13.8 mph 23.0 mph 0.00 in Snow Light Snow
3:40 PM 30.2 °F 18.9 °F 21.2 °F 69% 29.94 in 9.0 mi WNW 16.1 mph 24.2 mph 0.00 in Snow Light Snow
3:55 PM 30.0 °F 18.3 °F 19.0 °F 64% 29.97 in 9.0 mi WNW 17.3 mph - 0.00 in Snow Light Snow
4:55 PM 28.0 °F 16.5 °F 19.0 °F 69% 29.99 in 9.0 mi WNW 15.0 mph 25.3 mph 0.00 in Snow Light Snow
5:01 PM 28.4 °F 17.0 °F 19.4 °F 69% 29.96 in 9.0 mi WNW 15.0 mph - 0.00 in Snow Light Snow
5:42 PM 28.4 °F 18.0 °F 17.6 °F 64% 29.97 in 9.0 mi WNW 12.7 mph 20.7 mph 0.00 in Snow Light Snow
5:55 PM 28.0 °F 18.6 °F 18.0 °F 66% 29.99 in 7.0 mi NW 10.4 mph - 0.00 in Snow Light Snow
6:55 PM 28.0 °F 18.1 °F 17.1 °F 63% 30.00 in 9.0 mi NW 11.5 mph 17.3 mph 0.00 in Snow Light Snow
7:55 PM 27.0 °F 17.3 °F 17.1 °F 66% 30.00 in 9.0 mi NW 10.4 mph 16.1 mph 0.00 in Snow Light Snow
8:39 PM 26.6 °F 17.5 °F 17.6 °F 69% 29.97 in 9.0 mi WNW 9.2 mph - 0.00 in Snow Light Snow
8:55 PM 27.0 °F 17.3 °F 17.1 °F 66% 30.00 in 9.0 mi NW 10.4 mph - 0.00 in Snow Light Snow
9:55 PM 27.0 °F 18.7 °F 16.0 °F 63% 30.01 in 10.0 mi NNW 8.1 mph - 0.00 in   Overcast
10:55 PM 27.0 °F 21.6 °F 16.0 °F 63% 30.01 in 10.0 mi NNW 4.6 mph - N/A   Overcast
11:01 PM 26.6 °F 21.2 °F 15.8 °F 64% 29.99 in 10.0 mi NNW 4.6 mph - N/A   Overcast
11:55 PM 28.0 °F 21.7 °F 16.0 °F 61% 30.02 in 10.0 mi NW 5.8 mph - N/A   Overcast